Estherville, IA

4:59 PM CDT on May 26, 2017 (GMT -0500)
Estherville Municipal

Weather History for KEST - January, 2011

Change the Weather History Date:

Tuesday, January 4, 2011

  Actual Average Record
Temperature  
Mean Temperature 10 °F 16 °F  
Max Temperature 18 °F 24 °F 47 °F (1964)
Min Temperature 1 °F 7 °F -18 °F (1959)
Degree Days  
Heating Degree Days 55 49  
Month to date heating degree days 214 196  
Since 1 July heating degree days 3107 3339  
Cooling Degree Days 0 0  
Month to date cooling degree days 0 0  
Year to date cooling degree days 0 0  
Moisture  
Dew Point 5 °F    
Average Humidity 83    
Maximum Humidity 92    
Minimum Humidity 73    
Precipitation  
Precipitation 0.00 in 0.01 in 1.41 in (1973)
Month to date precipitation T 0.03  
Year to date precipitation T  
Sea Level Pressure  
Sea Level Pressure 30.08 in    
Wind  
Wind Speed 9 mph (WSW)    
Max Wind Speed 20 mph    
Max Gust Speed 22 mph    
Visibility 10 miles    
Events      
T = Trace of Precipitation, MM = Missing Value Source: NWS Daily Summary

Daily Weather History Graph

Daily Weather History Graph

Search for Another Location

Airport or City:

Trip Planner

Search our weather history database for the weather conditions in past years. The results will help you decide how hot, cold, wet, or windy it might be!

Date:

Astronomy

Jan. 04, 2011 Rise Set
Actual Time 7:51 AM CST 4:56 PM CST
Civil Twilight 7:19 AM CST 5:28 PM CST
Nautical Twilight 6:43 AM CST 6:04 PM CST
Astronomical Twilight 6:08 AM CST 6:39 PM CST
Moon 8:00 AM CST (1/4) 5:31 PM CST (1/4)
Length of Visible Light 10h 09m
Length of Day
9h 04m
New Moon, 0% of the Moon is Illuminated
Jan 4
New Moon
Jan 12
First Quarter
Jan 19
Full
Jan 26
Last Quarter
Feb 2
New

Hourly Weather History & Observations

Time (CST) Temp. Windchill Dew Point Humidity Pressure Visibility Wind Dir Wind Speed Gust Speed Precip Events Conditions
12:52 AM 5.0 °F -13.6 °F -0.0 °F 80% 30.11 in 10.0 mi WNW 16.1 mph - N/A   Clear
1:52 AM 3.9 °F -14.3 °F -0.9 °F 80% 30.11 in 10.0 mi WNW 15.0 mph - N/A   Clear
2:52 AM 3.0 °F -14.1 °F -0.9 °F 84% 30.10 in 10.0 mi WNW 12.7 mph - N/A   Clear
3:52 AM 3.0 °F -14.8 °F -2.0 °F 80% 30.11 in 10.0 mi WNW 13.8 mph - N/A   Clear
4:52 AM 1.9 °F -16.2 °F -2.9 °F 80% 30.12 in 10.0 mi WNW 13.8 mph - N/A   Clear
5:52 AM 1.9 °F -12.9 °F -2.9 °F 80% 30.11 in 10.0 mi WNW 9.2 mph - N/A   Clear
6:52 AM 1.9 °F -10.6 °F -2.9 °F 80% 30.12 in 10.0 mi West 6.9 mph - N/A   Clear
7:52 AM 1.0 °F -11.7 °F -2.9 °F 83% 30.12 in 10.0 mi WSW 6.9 mph - N/A   Clear
8:52 AM 3.0 °F -8.0 °F -2.0 °F 80% 30.12 in 10.0 mi SW 5.8 mph - N/A   Clear
9:52 AM 7.0 °F -4.5 °F 1.0 °F 77% 30.12 in 10.0 mi SW 6.9 mph - N/A   Clear
10:52 AM 10.0 °F -5.2 °F 5.0 °F 80% 30.13 in 10.0 mi WSW 12.7 mph - N/A   Clear
11:52 AM 12.9 °F -1.6 °F 8.1 °F 81% 30.12 in 10.0 mi WSW 12.7 mph - N/A   Clear
12:52 PM 15.1 °F 4.2 °F 9.0 °F 77% 30.09 in 10.0 mi West 8.1 mph - N/A   Clear
1:52 PM 17.1 °F 7.6 °F 10.0 °F 74% 30.07 in 10.0 mi West 6.9 mph - N/A   Clear
2:52 PM 18.0 °F 7.7 °F 10.0 °F 71% 30.07 in 10.0 mi WSW 8.1 mph - N/A   Clear
3:52 PM 18.0 °F 6.1 °F 10.0 °F 71% 30.06 in 10.0 mi West 10.4 mph - N/A   Clear
4:52 PM 16.0 °F 6.3 °F 10.9 °F 81% 30.06 in 10.0 mi West 6.9 mph - N/A   Clear
5:52 PM 14.0 °F 6.5 °F 10.0 °F 84% 30.06 in 10.0 mi SW 4.6 mph - N/A   Clear
6:52 PM 12.9 °F 3.8 °F 10.0 °F 88% 30.05 in 10.0 mi South 5.8 mph - N/A   Clear
7:52 PM 12.0 °F 1.5 °F 9.0 °F 88% 30.04 in 10.0 mi South 6.9 mph - N/A   Clear
8:52 PM 12.9 °F 1.6 °F 10.0 °F 88% 30.04 in 10.0 mi South 8.1 mph - N/A   Clear
9:52 PM 12.0 °F 4.1 °F 10.0 °F 92% 30.01 in 10.0 mi South 4.6 mph - N/A   Clear
10:52 PM 12.9 °F 1.6 °F 10.0 °F 88% 30.00 in 10.0 mi South 8.1 mph - N/A   Clear
11:52 PM 12.9 °F 1.6 °F 10.0 °F 88% 29.99 in 10.0 mi South 8.1 mph - N/A   Clear